Hourly Data Report for October 23, 2016

All times are specified in Local Standard Time (LST). Add 1 hour to adjust for Daylight Saving Time where and when it is observed.

FREDERICTON
NEW BRUNSWICK

45°52'08.000" N
66°32'14.000" W
20.70 m
8101505
71700
YFC

Download Data

Hourly Data (October 2016)
Hourly Data Report for October 23, 2016
Temp Definition
°C
Dew Point Temp Definition
°C
Rel Hum Definition
%
Wind Dir Definition
10's deg

Wind Spd Definition
km/h
Visibility Definition
km
Stn Press Definition
kPa
Hmdx Definition


Wind Chill Definition


Weather Definition


TIME
00:00 Legend Double Dagger 13.5 11.7 89 18 30 9.7 98.56     Rain,Fog
01:00 Legend Double Dagger 13.0 10.2 83 18 30 16.1 98.56     LegendNANA
02:00 Legend Double Dagger 12.0 9.8 86 17 34 16.1 98.58     LegendNANA
03:00 Legend Double Dagger 11.2 9.6 90 17 24 16.1 98.57     LegendNANA
04:00 Legend Double Dagger 10.5 7.7 83 18 35 16.1 98.57     LegendNANA
05:00 Legend Double Dagger 9.4 7.1 86 18 24 16.1 98.61     LegendNANA
06:00 Legend Double Dagger 8.8 6.0 82 18 21 16.1 98.66     LegendNANA
07:00 Legend Double Dagger 8.1 5.9 86 17 28 16.1 98.66     LegendNANA
08:00 Legend Double Dagger 8.1 5.6 84 19 24 16.1 98.68     LegendNANA
09:00 Legend Double Dagger 6.8 5.4 91 21 30 16.1 98.75     Rain
10:00 Legend Double Dagger 6.0 3.6 85 21 26 16.1 98.83     LegendNANA
11:00 Legend Double Dagger 5.9 3.1 82 21 34 16.1 98.85     Rain
12:00 Legend Double Dagger 6.9 2.8 75 21 37 16.1 98.87     LegendNANA
13:00 Legend Double Dagger 7.2 3.1 75 22 32 16.1 98.91     LegendNANA
14:00 Legend Double Dagger 5.8 3.3 84 24 22 16.1 99.00     Rain
15:00 Legend Double Dagger 5.4 3.8 89 22 24 16.1 99.07     Rain
16:00 Legend Double Dagger 6.4 3.2 80 22 34 16.1 99.05     LegendNANA
17:00 Legend Double Dagger 5.2 2.6 83 24 24 16.1 99.12     Rain
18:00 Legend Double Dagger 5.3 2.1 80 23 28 16.1 99.22     LegendNANA
19:00 Legend Double Dagger 5.1 1.5 78 22 21 16.1 99.29     LegendNANA
20:00 Legend Double Dagger 4.9 1.0 76 23 26 16.1 99.33     LegendNANA
21:00 Legend Double Dagger 5.5 1.1 73 24 28 16.1 99.36     LegendNANA
22:00 Legend Double Dagger 5.0 0.3 72 23 22 16.1 99.41     LegendNANA
23:00 Legend Double Dagger 5.2 -0.3 68 24 18 16.1 99.45     LegendNANA

Notes on Data Quality.

Legend

  • E = Estimated
  • M = Missing
  • NA = Not Available
  • ‡ = Partner data that is not subject to review by the National Climate Archives
Date modified: